Location: Andershausen
(51.8462°N, 9.8595°E)
Time: 03:20:45
(UTC+00:00)

Cosmos 1346 Rocket - Visible Passes

Search period start: 19 February 2026 00:00
Search period end: 01 March 2026 00:00
Orbit: 476 x 487 km, 81.2° (Epoch: 18 February)

Date Brightness Start Highest point End Pass type
(mag) Time Alt. Az. Time Alt. Az. Time Alt. Az.
19 Feb 3.3 04:13:16 10° N 04:16:53 53° ENE 04:20:29 10° SSE visible
19 Feb 4.3 05:49:33 10° NW 05:51:38 15° W 05:53:42 10° WSW visible
19 Feb 2.6 18:02:35 10° SSW 18:06:13 83° WNW 18:09:53 10° NNE visible
20 Feb 4.2 03:47:42 10° N 03:51:08 35° ENE 03:54:32 10° SE visible
20 Feb 3.8 05:23:15 10° NW 05:26:06 21° W 05:28:56 10° SW visible
20 Feb 2.5 17:36:57 10° S 17:40:32 63° E 17:44:09 10° NNE visible
20 Feb 5.8 19:14:09 10° W 19:16:07 14° WNW 19:18:07 10° NNW visible
21 Feb 4.9 03:22:15 10° N 03:25:19 24° ENE 03:28:22 10° ESE visible
21 Feb 3.3 04:57:14 10° NNW 05:00:31 31° W 05:03:48 10° SSW visible
21 Feb 5.4 18:47:31 10° WSW 18:50:14 20° WNW 18:52:58 10° NNW visible
22 Feb 5.4 02:56:56 10° NNE 02:59:27 17° ENE 03:01:57 10° ESE visible
22 Feb 2.7 04:31:20 10° NNW 04:34:53 48° W 04:38:26 10° S visible
22 Feb 4.8 18:21:12 10° SW 18:24:22 28° WNW 18:27:34 10° N visible
23 Feb6.002:35:30E02:35:30E02:30:51NNEvisible
23 Feb 2.9 04:10:05 49° S 04:10:05 49° S 04:12:53 10° S visible
23 Feb 4.0 17:55:05 10° SW 17:58:32 41° WNW 18:02:02 10° N visible
24 Feb5.803:48:01SSE03:48:01SSE03:38:34Nvisible
24 Feb 3.1 17:29:08 10° SSW 17:32:45 64° WNW 17:36:24 10° N visible
25 Feb 5.9 18:41:25 10° W 18:42:43 12° WNW 18:44:02 10° NW visible
26 Feb 5.6 18:14:22 10° WSW 18:16:44 16° WNW 18:19:07 10° NNW visible
27 Feb 5.2 17:47:50 10° WSW 17:50:48 23° WNW 17:53:47 10° NNW visible
